Wind_Speed
29 29 29 28 28 29 30 30 31 30 31 30 30 30 30 30 30 30 31 31 31 32 32 32 33 33 34 34 34 35 35 36 37 38 38 39 39 39 39 39 39 40 40 40
31 30 31 30 29 30 30 30 30 31 31 30 30 30 30 30 30 30 31 32 32 32 32 33 33 34 34 35 35 35 35 36 36 37 37 38 38 38 38 38 39 39 39 39
32 32 33 31 29 30 30 29 29 30 29 30 31 31 31 31 31 31 31 31 32 32 33 34 34 34 35 35 36 36 35 36 36 36 37 37 37 38 38 38 38 38 38 38
32 32 32 29 29 29 30 30 31 31 30 31 32 32 32 33 32 32 32 32 32 32 33 33 34 34 35 35 36 36 35 35 35 35 36 36 36 36 37 37 37 37 37 38
32 32 32 29 28 28 29 29 29 30 30 31 32 32 32 33 33 32 32 32 32 33 33 33 33 34 34 35 35 35 35 35 35 35 35 35 35 36 36 36 37 37 38 38
31 33 32 29 29 29 29 29 28 29 30 30 31 32 31 33 34 33 33 32 32 32 33 33 33 34 34 35 35 35 35 35 34 35 35 34 35 35 35 35 36 37 37 37
29 31 31 30 30 30 31 30 29 30 31 32 32 32 32 32 33 33 33 32 32 32 32 33 34 34 34 34 34 34 34 34 34 34 33 34 34 35 35 35 35 35 36 37
28 29 29 28 29 30 31 31 32 32 32 33 32 32 31 31 32 32 32 32 32 32 32 33 33 33 33 33 33 33 33 33 32 32 33 34 34 34 34 35 35 35 36 36
28 27 27 28 28 29 30 30 31 31 32 32 32 32 31 32 32 32 32 32 32 31 32 32 32 32 32 33 32 32 32 32 32 32 32 33 34 34 35 35 36 35 34 34
27 27 27 27 27 28 29 29 29 30 30 31 31 31 31 31 31 31 31 30 31 31 32 31 31 31 31 32 32 32 31 31 31 32 31 31 32 32 33 33 33 33 33 33
28 27 28 28 29 29 29 29 29 29 30 30 30 30 31 30 30 30 29 28 28 29 29 29 29 30 30 31 31 31 30 30 30 31 31 30 30 30 30 31 31 31 32 32
27 27 29 29 30 30 29 29 28 28 29 29 30 30 30 30 30 29 28 28 28 28 28 28 29 29 30 30 29 29 29 29 29 29 29 29 28 29 29 30 30 31 31 31
28 28 29 29 29 29 29 28 28 29 29 29 29 29 30 29 29 28 27 27 27 27 27 28 28 28 29 28 28 28 27 27 28 28 28 28 28 28 28 28 29 30 30 30
27 27 27 27 27 28 28 28 28 28 27 27 28 28 28 27 27 26 26 26 26 26 26 26 26 26 27 27 27 27 26 26 26 26 27 27 27 27 27 28 28 29 30 31
27 27 27 26 26 27 27 27 27 27 26 26 26 26 25 25 25 26 26 26 26 26 26 25 25 25 25 25 25 25 25 25 25 25 25 26 26 27 27 28 28 28 29 30
26 26 26 26 26 26 26 26 26 25 25 25 24 25 25 25 25 25 26 26 25 25 25 25 25 24 24 24 24 24 24 24 24 24 25 25 26 27 27 28 28 28 28 28
25 24 25 25 25 25 24 24 24 24 24 25 25 25 25 25 25 25 25 25 25 24 24 24 24 24 24 24 24 23 23 23 24 24 24 25 25 26 26 27 26 26 27 27
23 24 24 24 24 24 24 24 24 24 25 25 25 25 24 24 23 23 23 23 23 23 23 22 22 23 23 23 23 22 22 22 22 23 23 24 24 25 25 24 24 24 25 25
22 23 22 22 23 24 24 24 24 23 23 24 24 24 23 22 22 22 22 22 21 21 21 21 21 21 21 21 22 21 21 21 21 21 21 22 22 22 22 23 23 23 23 24
21 22 22 22 23 23 23 23 23 22 22 23 23 22 22 22 22 22 21 21 20 19 19 19 19 19 19 19 19 19 19 19 19 20 20 21 21 21 21 21 22 22 22 22
20 20 21 21 22 22 22 22 22 22 22 23 22 22 22 21 21 21 21 20 20 19 19 19 18 18 18 17 17 17 17 17 17 17 18 18 18 19 19 20 20 20 21 21
19 20 20 20 21 21 21 21 22 22 23 22 22 22 21 21 21 21 20 20 19 18 18 18 17 17 17 16 16 16 16 16 16 16 16 17 18 18 18 19 19 19 19 19
19 19 19 19 20 20 20 20 20 20 20 20 20 19 19 18 19 19 18 19 19 19 18 18 17 17 16 16 16 16 16 16 16 16 16 16 17 17 18 18 18 18 17 17
18 19 19 20 20 20 20 20 19 19 18 18 18 18 18 18 18 18 18 18 18 18 18 17 17 16 16 16 16 16 16 16 16 16 16 16 16 17 17 17 17 17 17 17
18 18 19 20 20 20 19 18 18 17 16 16 16 16 16 17 17 17 17 18 18 18 17 16 16 16 15 15 15 15 15 15 15 15 16 16 16 16 16 16 16 17 17 17
18 18 19 19 19 19 18 17 16 15 15 15 15 16 16 16 16 16 16 16 16 16 16 16 16 16 15 15 15 14 15 15 15 15 16 16 16 16 16 17 17 17 17 17
17 18 18 18 18 18 18 17 16 15 15 15 15 15 16 15 15 15 15 15 15 15 15 15 15 15 15 14 14 14 14 14 15 15 16 16 16 16 16 17 17 17 16 16
Wind_Direction
271 271 269 268 267 266 267 269 269 267 266 266 267 268 269 271 270 269 269 270 269 268 267 267 267 266 266 266 267 267 267 267 267 267 267 266 266 265 264 263 262 263 263 262
270 270 268 268 268 267 267 269 270 269 268 267 266 266 268 269 269 269 270 269 269 269 268 267 267 267 267 267 267 267 268 268 268 268 268 267 266 265 264 263 263 264 264 263
271 270 269 268 269 268 268 268 269 269 271 269 266 266 268 268 268 269 270 271 270 269 269 268 268 267 267 267 267 269 270 270 270 269 268 268 266 265 264 264 265 265 265 264
272 271 270 271 270 269 270 269 267 270 271 271 271 270 269 269 270 271 271 271 270 268 268 268 268 268 268 269 270 270 270 270 269 269 268 267 266 265 265 265 265 265 265 265
271 271 272 270 270 270 271 271 270 271 272 273 273 272 271 271 271 272 273 272 270 269 268 268 268 269 270 270 270 270 270 270 269 269 268 267 266 265 266 265 264 265 267 267
272 273 274 272 272 271 270 271 271 272 272 274 274 273 273 272 272 273 273 273 272 270 268 268 269 270 270 270 271 270 269 269 269 269 268 266 265 266 266 266 266 267 268 269
274 275 275 274 273 272 272 273 272 272 273 274 275 275 274 273 273 273 273 273 273 271 270 270 270 270 271 271 270 269 269 269 269 269 268 267 267 267 266 267 267 268 270 270
275 276 277 278 276 275 274 272 272 273 274 275 276 275 274 273 272 272 273 274 272 270 270 270 271 271 271 271 270 269 268 268 269 268 267 267 267 266 266 267 268 270 270 270
277 279 280 279 279 278 276 274 273 274 276 276 277 276 275 274 273 272 272 272 271 269 269 270 270 270 270 270 269 268 268 268 267 268 268 268 267 266 266 267 268 269 271 272
279 280 280 279 277 277 276 276 275 275 277 279 278 276 275 275 274 273 272 271 270 269 269 269 270 270 270 270 270 268 268 268 268 269 269 269 267 265 266 267 269 271 272 273
277 277 277 278 279 278 277 276 276 277 278 278 279 279 276 274 274 274 271 271 270 269 268 268 269 269 271 270 269 269 269 269 269 269 268 267 267 267 268 269 270 272 274 275
278 278 278 278 278 279 277 275 275 276 278 278 277 277 276 275 274 273 271 269 269 269 268 268 270 270 270 271 270 270 270 269 268 268 268 268 269 269 270 272 272 273 275 275
279 279 279 280 280 280 278 276 275 276 278 278 276 275 275 275 275 272 271 269 269 269 269 269 270 269 270 270 270 270 270 269 267 267 267 267 269 271 271 273 273 274 274 274
281 281 281 282 282 281 279 276 275 276 276 277 276 274 273 273 272 271 271 270 271 270 270 270 269 268 268 269 270 270 269 269 268 267 267 268 270 272 274 275 276 276 275 274
280 281 283 283 282 280 279 277 275 275 276 276 277 275 273 271 270 270 270 271 271 271 270 270 269 268 268 268 269 269 269 269 269 269 268 269 272 274 275 276 277 277 276 276
280 282 283 283 282 281 280 278 276 276 276 277 276 274 272 270 269 270 270 270 271 270 269 269 268 267 268 268 269 269 270 269 269 270 270 271 273 275 277 277 277 277 276 276
281 281 282 283 283 283 283 280 278 277 277 277 275 274 272 271 270 271 271 269 269 269 270 270 268 266 267 269 270 271 270 269 270 270 272 274 275 276 277 278 278 276 275 275
281 282 282 283 283 283 282 280 279 279 278 277 275 274 272 272 272 271 270 269 268 269 269 269 268 266 267 268 269 270 271 271 271 271 272 274 276 277 278 279 278 277 276 276
282 283 284 285 285 283 282 281 280 279 278 277 277 274 272 271 271 270 270 269 269 269 268 268 267 268 268 268 269 269 270 271 271 272 274 276 278 279 280 280 279 279 279 278
285 286 286 286 287 286 285 284 282 280 279 279 277 273 271 271 272 270 268 268 268 268 268 268 267 267 268 268 267 268 270 270 271 273 276 278 280 281 282 283 282 281 280 279
288 289 289 290 289 289 288 286 283 282 281 281 278 274 273 272 271 269 267 266 267 268 268 268 267 267 267 267 267 268 269 270 273 277 279 280 282 283 283 283 283 283 281 280
290 290 292 293 293 292 290 288 284 283 282 281 279 276 273 272 271 269 267 265 265 265 266 266 266 265 266 266 266 267 267 270 274 277 279 281 283 284 285 285 285 284 284 282
292 293 294 296 298 297 295 292 289 287 284 281 278 277 274 272 270 268 265 263 263 263 264 265 264 263 264 265 264 265 267 270 275 278 280 283 285 286 287 287 287 286 285 284
295 296 297 298 299 299 297 294 292 289 285 281 280 278 275 273 270 267 264 262 261 261 262 261 260 260 261 262 263 265 268 272 276 278 280 283 286 289 289 289 288 287 286 285
299 299 300 301 302 302 300 298 295 291 287 284 283 281 277 274 272 268 265 262 260 259 258 258 257 256 257 259 262 265 269 272 275 276 279 283 286 289 291 291 290 288 287 286
302 301 301 302 303 303 302 300 296 291 288 286 284 283 281 277 273 268 265 261 259 257 255 254 253 253 255 258 262 266 269 272 276 279 282 284 287 289 290 291 291 291 289 288
305 305 305 304 303 303 302 300 297 293 290 289 289 286 282 278 273 267 262 258 256 254 252 252 253 253 255 257 261 267 271 275 279 283 286 287 288 289 291 293 294 293 291 289
Height
5592 5593 5592 5593 5593 5593 5592 5592 5592 5594 5594 5596 5596 5597 5597 5597 5596 5596 5597 5597 5598 5598 5599 5599 5599 5600 5600 5599 5599 5599 5599 5599 5599 5599 5599 5599 5600 5601 5602 5603 5605 5606 5607 5608
5584 5584 5583 5584 5585 5585 5585 5585 5584 5584 5586 5588 5588 5588 5588 5588 5588 5588 5588 5589 5589 5589 5589 5590 5590 5590 5590 5590 5590 5590 5589 5589 5588 5588 5589 5589 5590 5591 5592 5593 5594 5595 5596 5597
5575 5575 5574 5576 5578 5578 5577 5577 5577 5576 5579 5578 5578 5579 5579 5579 5579 5579 5580 5580 5580 5580 5580 5580 5580 5580 5580 5580 5580 5580 5579 5579 5579 5579 5579 5579 5579 5580 5581 5582 5583 5584 5586 5587
5565 5566 5565 5571 5570 5570 5569 5569 5569 5569 5570 5569 5569 5569 5570 5570 5570 5570 5571 5571 5570 5570 5570 5570 5570 5570 5570 5570 5570 5570 5570 5569 5569 5569 5569 5569 5570 5570 5571 5572 5573 5574 5575 5576
5556 5555 5556 5561 5562 5561 5560 5561 5562 5561 5561 5561 5560 5560 5561 5561 5561 5561 5561 5561 5561 5561 5561 5561 5561 5560 5560 5561 5560 5560 5560 5559 5559 5559 5559 5559 5560 5561 5561 5562 5563 5564 5565 5565
5548 5547 5547 5553 5553 5552 5552 5552 5554 5552 5552 5552 5551 5551 5553 5552 5552 5552 5552 5551 5551 5551 5551 5551 5551 5551 5551 5551 5550 5550 5549 5549 5549 5549 5549 5550 5550 5551 5552 5552 5553 5554 5554 5555
5540 5538 5539 5544 5544 5543 5544 5545 5545 5544 5543 5543 5542 5543 5543 5542 5542 5542 5542 5542 5542 5541 5541 5541 5541 5541 5541 5541 5540 5540 5539 5539 5539 5539 5540 5540 5541 5542 5542 5543 5543 5544 5545 5545
5532 5532 5535 5536 5535 5535 5535 5535 5535 5534 5534 5533 5533 5533 5533 5533 5532 5532 5532 5532 5532 5532 5531 5531 5531 5531 5531 5531 5530 5530 5530 5530 5530 5530 5530 5530 5531 5532 5532 5533 5534 5534 5534 5534
5526 5528 5527 5526 5526 5525 5525 5525 5525 5525 5525 5524 5524 5524 5524 5523 5523 5523 5523 5523 5522 5522 5522 5521 5521 5521 5521 5521 5520 5520 5520 5520 5520 5520 5520 5521 5522 5522 5523 5523 5524 5524 5524 5524
5518 5520 5519 5518 5517 5517 5516 5516 5515 5515 5515 5515 5514 5514 5514 5514 5513 5513 5513 5512 5512 5512 5512 5512 5511 5511 5511 5511 5511 5511 5511 5511 5511 5511 5511 5511 5512 5512 5513 5514 5514 5514 5514 5514
5511 5511 5511 5510 5509 5508 5507 5506 5506 5507 5506 5506 5505 5505 5504 5504 5504 5503 5503 5503 5502 5502 5502 5502 5502 5502 5501 5501 5501 5502 5502 5502 5502 5502 5502 5502 5502 5503 5503 5504 5504 5504 5504 5504
5504 5504 5502 5501 5500 5499 5498 5498 5497 5497 5497 5496 5496 5495 5495 5495 5494 5494 5494 5494 5494 5493 5493 5493 5493 5493 5492 5492 5492 5492 5493 5493 5492 5492 5493 5493 5493 5494 5494 5494 5494 5494 5494 5494
5496 5495 5493 5493 5492 5491 5490 5489 5489 5488 5488 5487 5487 5486 5486 5486 5485 5485 5485 5485 5485 5485 5485 5485 5484 5484 5484 5484 5484 5484 5484 5484 5484 5484 5484 5485 5485 5485 5485 5485 5484 5484 5484 5484
5488 5487 5486 5485 5484 5483 5482 5481 5480 5480 5479 5478 5478 5477 5477 5477 5477 5476 5476 5477 5477 5477 5477 5476 5476 5476 5475 5475 5475 5475 5475 5475 5475 5475 5476 5476 5476 5476 5476 5476 5476 5475 5474 5474
5480 5479 5478 5477 5476 5475 5473 5472 5472 5471 5471 5470 5470 5469 5469 5468 5468 5468 5468 5468 5468 5468 5468 5468 5468 5468 5467 5467 5467 5467 5467 5467 5467 5467 5467 5467 5467 5467 5467 5467 5466 5466 5465 5465
5472 5471 5470 5469 5468 5466 5465 5464 5464 5463 5463 5462 5462 5461 5461 5460 5460 5460 5460 5460 5460 5460 5460 5460 5460 5460 5460 5459 5459 5459 5459 5459 5459 5459 5459 5459 5459 5459 5459 5458 5457 5457 5456 5456
5464 5464 5463 5461 5460 5459 5457 5456 5456 5455 5455 5454 5454 5453 5453 5452 5452 5452 5452 5452 5452 5452 5452 5452 5452 5452 5452 5452 5452 5452 5451 5451 5451 5451 5451 5452 5451 5451 5450 5450 5449 5448 5448 5447
5457 5456 5455 5454 5453 5451 5450 5449 5448 5447 5447 5446 5446 5445 5445 5445 5445 5444 5444 5444 5444 5444 5444 5444 5444 5444 5444 5445 5445 5444 5444 5444 5444 5444 5444 5444 5444 5443 5442 5441 5441 5440 5439 5439
5449 5448 5447 5446 5445 5444 5442 5441 5440 5440 5439 5438 5438 5437 5437 5437 5437 5437 5437 5437 5437 5437 5437 5437 5437 5437 5438 5437 5437 5437 5438 5437 5437 5437 5437 5437 5436 5436 5435 5434 5433 5433 5432 5431
5443 5442 5440 5439 5438 5436 5435 5434 5433 5432 5431 5430 5430 5429 5429 5429 5429 5429 5429 5429 5430 5430 5430 5430 5431 5431 5431 5431 5431 5431 5431 5431 5431 5431 5431 5430 5430 5429 5428 5427 5427 5426 5425 5424
5436 5435 5434 5433 5431 5429 5428 5426 5425 5425 5424 5423 5422 5422 5422 5422 5422 5422 5422 5423 5423 5423 5424 5424 5424 5425 5425 5425 5425 5426 5426 5426 5426 5425 5425 5424 5424 5423 5422 5421 5420 5419 5418 5418
5430 5429 5428 5426 5425 5423 5421 5420 5418 5417 5416 5415 5415 5414 5414 5414 5414 5415 5415 5416 5417 5417 5418 5418 5418 5419 5419 5420 5420 5420 5420 5420 5420 5420 5419 5419 5418 5417 5416 5415 5414 5413 5412 5411
5424 5423 5422 5420 5419 5417 5415 5413 5412 5410 5409 5408 5408 5407 5407 5407 5407 5408 5409 5409 5410 5411 5411 5412 5413 5413 5414 5414 5415 5415 5415 5415 5415 5414 5414 5413 5413 5412 5411 5410 5408 5407 5406 5406
5419 5418 5416 5415 5413 5411 5409 5407 5405 5404 5403 5402 5401 5400 5400 5400 5401 5401 5402 5403 5404 5404 5405 5406 5407 5408 5408 5409 5409 5410 5410 5410 5410 5409 5409 5408 5407 5407 5405 5404 5403 5402 5401 5400
5414 5412 5411 5409 5407 5405 5403 5401 5400 5398 5397 5396 5395 5395 5394 5394 5395 5395 5395 5396 5397 5398 5399 5400 5402 5402 5403 5404 5405 5405 5405 5405 5405 5404 5404 5403 5402 5401 5400 5399 5398 5397 5396 5395
5409 5407 5406 5404 5402 5400 5398 5396 5394 5393 5392 5391 5391 5390 5389 5389 5389 5389 5390 5390 5391 5393 5394 5395 5396 5397 5398 5399 5400 5400 5400 5400 5400 5399 5399 5398 5397 5396 5395 5394 5393 5392 5390 5389
5404 5402 5400 5398 5396 5395 5393 5391 5390 5389 5388 5387 5386 5385 5384 5384 5384 5384 5384 5385 5386 5387 5389 5390 5391 5392 5393 5394 5395 5395 5395 5395 5395 5395 5394 5393 5392 5391 5390 5389 5388 5386 5385 5384